Waarnemingen

Advertentie
Mijn weer
Barth, Duitsland (10180): temperatuur & dauwpunt: 14.08.2017 00:00:00 - 20.08.2017 00:00:00 (CEST)Barth, Duitsland (10180): temperatuur 5cm & temperatuur -5cm: 14.08.2017 00:00:00 - 20.08.2017 00:00:00 (CEST)Barth, Duitsland (10180): temperatuur -20cm & temperatuur -100cm: 14.08.2017 00:00:00 - 20.08.2017 00:00:00 (CEST)Barth, Duitsland (10180): windsnelheid & windstoten: 14.08.2017 00:00:00 - 20.08.2017 00:00:00 (CEST)Barth, Duitsland (10180): windrichting: 14.08.2017 00:00:00 - 20.08.2017 00:00:00 (CEST)Barth, Duitsland (10180): luchtdruk: 14.08.2017 00:00:00 - 20.08.2017 00:00:00 (CEST)Barth, Duitsland (10180): zicht: 14.08.2017 00:00:00 - 20.08.2017 00:00:00 (CEST)Barth, Duitsland (10180): Zonneschijnduur: 14.08.2017 00:00:00 - 20.08.2017 00:00:00 (CEST)Barth, Duitsland (10180): neerslag: 14.08.2017 00:00:00 - 20.08.2017 00:00:00 (CEST)
Datum & Tijd tt [°C] td [°C] tt 5cm [°C] tt -5cm [°C] tt -20cm [°C] tt -100cm [°C] ff [km/u] ff [kn] fx [km/u] fx [kn] dd ppp [hPa] vv [km] sd [min] rr [mm]
20.08.2017 00:00:00 12,2 11,5 10,8 14,2 17,5 15,9 11 6 16 9 ZW 1016,1 19 0 0,0
19.08.2017 23:00:00 12,9 12,4 10,5 15,0 17,8 15,9 5 3 41 22 ZZO 1016,0 13 0 1,2
19.08.2017 22:00:00 13,8 11,8 12,9 15,5 18,2 15,9 12 7 41 22 ZZW 1015,9 2,0 0 0,0
19.08.2017 21:00:00 13,7 11,2 11,1 16,1 18,5 15,9 8 5 19 10 ZZW 1015,1 3,2 1 0,0
19.08.2017 20:00:00 16,4 11,9 15,2 17,4 18,7 15,9 9 5 31 17 WZW 1014,7 65 60 0,0
19.08.2017 19:00:00 17,6 11,7 18,2 18,9 18,8 15,9 19 10 36 20 WZW 1014,4 13 50 0,0
19.08.2017 18:00:00 17,9 12,3 19,4 20,1 18,8 15,9 21 11 36 19 ZW 1014,6 8 55 0,0
19.08.2017 17:00:00 15,7 12,7 15,9 19,3 18,8 15,9 15 8 51 28 ZW 1014,5 25 0 0,3
19.08.2017 16:00:00 18,8 10,4 19,4 20,6 18,8 15,9 25 14 40 22 ZW 1013,6 14 21 0,0
19.08.2017 15:00:00 19,5 11,3 21,9 21,0 18,6 15,9 24 13 40 21 ZW 1013,5 16 21 0,0
19.08.2017 14:00:00 16,6 12,4 17,7 20,5 18,3 15,9 15 8 37 20 WZW 1013,6 39 19 0,1
19.08.2017 13:00:00 18,5 11,1 20,4 22,0 17,9 15,9 24 13 38 21 WZW 1013,1 13 35 0,0
19.08.2017 12:00:00 18,5 11,6 21,9 21,3 17,5 15,9 22 12 39 21 ZW 1012,9 8 52 0,0
19.08.2017 11:00:00 17,1 12,2 19,9 19,8 17,2 15,9 23 12 36 19 ZW 1012,9 13 46 0,0
19.08.2017 10:00:00 16,2 12,6 18,1 18,2 17,0 15,9 22 12 35 19 ZW 1012,3 8 47 0,0
19.08.2017 09:00:00 15,0 12,7 15,4 16,5 17,0 15,9 18 10 27 15 ZW 1011,6 15 16 0,0
19.08.2017 08:00:00 15,3 13,6 14,9 15,6 17,2 15,9 16 9 29 15 ZW 1010,6 8 12 0,0
19.08.2017 07:00:00 14,7 13,6 13,7 14,9 17,4 15,9 15 8 26 14 ZW 1010,1 5 0 0,0
19.08.2017 06:00:00 14,8 13,9 13,7 15,1 17,6 15,9 21 11 32 18 ZW 1009,6 6 0 0,0
19.08.2017 05:00:00 15,1 14,3 14,0 15,6 17,9 15,9 15 8 25 14 ZW 1009,0 7 0 0,0
19.08.2017 04:00:00 15,8 15,0 15,0 16,1 18,1 15,9 16 9 25 13 ZW 1009,0 10 0 0,0
19.08.2017 03:00:00 15,8 14,9 14,7 16,5 18,3 15,9 14 7 20 11 ZW 1008,6 12 0 0,0
19.08.2017 02:00:00 16,5 15,7 15,8 17,0 18,5 15,9 11 6 17 9 ZW 1008,5 10 0 0,1
19.08.2017 01:00:00 16,7 15,7 16,0 17,5 18,7 15,9 16 8 23 13 WZW 1009,1 11 0 1,8
19.08.2017 00:00:00 16,9 16,3 16,4 17,8 18,9 15,9 7 4 13 7 WZW 1009,1 6 0 0,3
18.08.2017 23:00:00 16,7 16,3 16,4 18,0 19,1 15,9 7 4 11 6 ZW 1008,8 7 0 0,0
18.08.2017 22:00:00 16,3 16,0 15,8 18,3 19,3 15,9 2 1 5 3 W 1009,2 0,3 0 0,0
18.08.2017 21:00:00 17,3 17,0 16,0 18,9 19,5 15,9 5 3 13 7 Z 1009,4 3,4 0 0,0
18.08.2017 20:00:00 18,0 17,2 17,8 19,8 19,7 15,9 10 5 13 7 OZO 1009,6 15 0 0,0
18.08.2017 19:00:00 18,0 17,0 17,7 20,2 19,8 15,9 6 3 16 9 ZW 1010,1 20 0 4,1
18.08.2017 18:00:00 19,9 18,2 19,4 21,3 19,8 15,9 5 3 16 8 Z 1010,5 4,6 0 0,0
18.08.2017 17:00:00 20,4 16,4 20,5 21,6 19,8 15,9 8 5 23 13 Z 1010,8 40 0 0,1
18.08.2017 16:00:00 21,3 17,2 21,1 22,4 19,7 15,9 14 8 31 17 ZZW 1011,3 19 0 0,0
18.08.2017 15:00:00 22,0 16,6 22,8 22,7 19,5 15,9 18 10 34 19 ZZW 1011,9 24 0 0,0
18.08.2017 14:00:00 22,0 16,8 22,6 23,4 19,1 15,9 14 8 32 17 ZZW 1012,1 26 29 0,0
18.08.2017 13:00:00 21,9 17,0 23,9 22,7 18,8 15,9 19 11 31 17 ZZW 1012,1 10 5 0,0
18.08.2017 12:00:00 20,9 17,3 22,3 22,2 18,4 15,9 18 10 29 16 Z 1012,8 11 11 0,0
18.08.2017 11:00:00 19,9 17,0 21,3 21,0 18,2 15,9 18 10 27 15 ZZW 1013,3 8 0 0,0
18.08.2017 10:00:00 19,8 17,9 21,2 20,1 18,0 15,8 14 8 23 13 ZZW 1013,1 7 2 0,0
18.08.2017 09:00:00 19,0 17,3 19,6 19,3 17,9 15,8 11 6 18 10 ZZW 1013,1 6 3 0,0
18.08.2017 08:00:00 18,0 17,1 18,0 17,8 17,9 15,8 11 6 21 12 ZZW 1013,3 4,0 0 0,0
18.08.2017 07:00:00 17,7 16,9 17,4 17,5 18,0 15,8 13 7 19 10 Z 1013,4 3,9 0 0,0
18.08.2017 06:00:00 17,3 16,8 16,9 17,3 18,1 15,8 8 4 14 7 ZZW 1013,2 3,1 0 0,0
18.08.2017 05:00:00 17,4 16,8 16,9 17,3 18,2 15,8 10 5 15 8 ZW 1013,0 3,0 0 0,0
18.08.2017 04:00:00 16,9 16,4 16,1 17,2 18,4 15,8 9 5 16 8 ZW 1013,1 4,0 0 0,0
18.08.2017 03:00:00 17,1 16,5 16,4 17,5 18,6 15,8 10 5 20 11 ZW 1013,2 4,0 0 0,0
18.08.2017 02:00:00 17,6 16,9 17,1 17,9 18,7 15,8 14 8 24 13 ZW 1013,7 6 0 0,1
18.08.2017 01:00:00 17,6 17,1 17,2 18,5 18,9 15,9 8 4 12 7 ZZW 1013,5 4,3 0 0,8
18.08.2017 00:00:00 17,8 17,3 17,4 18,7 19,1 15,9 4 2 9 5 Z 1013,5 2,5 0 3,2
17.08.2017 23:00:00 17,9 17,2 17,5 19,1 19,3 15,9 8 4 13 7 ZZO 1013,7 2,5 0 0,8
17.08.2017 22:00:00 18,1 17,4 17,6 19,5 19,4 15,9 6 3 14 8 ZO 1014,0 6 0 1,0
17.08.2017 21:00:00 19,8 16,9 18,0 20,2 19,5 15,9 16 8 23 13 WZW 1014,5 8 0 0,3
17.08.2017 20:00:00 22,2 15,7 21,1 21,0 19,6 15,8 13 7 27 15 Z 1013,9 36 0 0,0
17.08.2017 19:00:00 23,1 15,2 22,1 21,7 19,6 15,8 16 9 37 20 ZZO 1013,8 39 0 0,0
17.08.2017 18:00:00 24,0 14,6 23,5 22,7 19,4 15,8 22 12 41 22 ZZO 1014,2 40 30 0,0
17.08.2017 17:00:00 23,9 14,4 24,2 23,0 19,2 15,8 22 12 34 19 ZZO 1014,9 29 29 0,0
17.08.2017 16:00:00 23,8 15,2 25,4 22,6 18,9 15,8 18 10 28 15 ZZO 1015,6 19 3 0,0
17.08.2017 15:00:00 23,1 13,7 22,9 23,1 18,5 15,8 17 9 39 21 ZZO 1016,3 39 17 0,0
17.08.2017 14:00:00 23,7 14,5 25,5 23,7 18,0 15,8 24 13 33 18 ZZO 1017,0 13 48 0,0
17.08.2017 13:00:00 23,2 14,5 25,9 23,3 17,4 15,8 22 12 34 18 ZZO 1017,4 8 55 0,0
17.08.2017 12:00:00 22,6 15,6 25,6 21,7 16,8 15,8 20 11 32 17 ZO 1018,1 13 54 0,0
17.08.2017 11:00:00 21,6 16,3 24,3 20,5 16,3 15,8 19 10 28 15 ZZO 1019,1 8 58 0,0
17.08.2017 10:00:00 20,1 16,3 22,4 18,6 15,9 15,8 16 9 24 13 ZZO 1019,4 4,3 56 0,0
17.08.2017 09:00:00 17,4 15,3 17,9 16,3 15,8 15,8 11 6 18 10 ZO 1020,1 4,3 59 0,0
17.08.2017 08:00:00 15,3 14,2 15,4 14,3 15,8 15,8 8 4 12 6 ZO 1020,3 4,0 56 0,0
17.08.2017 07:00:00 12,0 11,8 11,2 12,6 16,1 15,8 7 4 8 5 OZO 1020,3 2,0 25 0,0
17.08.2017 06:00:00 11,2 11,0 7,6 12,5 16,3 15,8 3 2 8 5 OZO 1020,5 4,2 0 0,0
17.08.2017 05:00:00 11,6 11,5 10,6 12,9 16,6 15,8 4 2 18 10 W 1020,5 3,8 0 0,0
17.08.2017 04:00:00 8,8 8,6 7,2 12,8 16,9 15,8 4 2 5 3 O 1020,8 1,4 0 0,0
17.08.2017 03:00:00 10,1 9,9 7,9 13,3 17,3 15,8 3 2 4 2 ZZO 1021,2 5 0 0,0
17.08.2017 02:00:00 9,4 9,0 8,5 13,7 17,7 15,8 2 1 6 3 ZZO 1021,6 0,1 0 0,0
17.08.2017 01:00:00 11,7 11,7 8,2 14,3 18,1 15,8 2 1 5 3 ZO 1021,5 0,2 0 0,0
17.08.2017 00:00:00 11,3 11,3 9,0 14,9 18,5 15,8 3 1 5 3 ZZW 1021,6 0,6 0 0,0
16.08.2017 23:00:00 11,5 11,1 8,7 15,7 18,8 15,8 0 0 4 2 N 1021,7 0,1 0 0,0
16.08.2017 22:00:00 12,8 12,1 9,9 16,7 19,2 15,8 3 1 5 3 Z 1021,9 7 0 0,0
16.08.2017 21:00:00 14,0 12,7 11,2 18,1 19,4 15,8 3 1 7 4 WZW 1021,7 8 0 0,0
16.08.2017 20:00:00 18,0 13,9 15,6 19,8 19,5 15,8 5 3 12 6 W 1021,4 22 49 0,0
16.08.2017 19:00:00 20,2 13,1 21,8 21,1 19,5 15,8 8 5 19 11 WNW 1021,1 20 60 0,0
16.08.2017 18:00:00 20,3 13,9 23,2 21,6 19,4 15,8 16 8 24 13 WNW 1021,2 15 56 0,0
16.08.2017 17:00:00 20,4 14,7 23,6 22,1 19,3 15,8 18 10 27 15 WNW 1021,2 13 38 0,0
16.08.2017 16:00:00 19,7 14,9 21,5 22,3 19,0 15,8 18 10 29 16 W 1021,2 15 29 0,0
16.08.2017 15:00:00 20,6 15,0 22,6 23,3 18,7 15,8 15 8 21 11 W 1020,8 13 26 0,0
16.08.2017 14:00:00 19,9 15,0 22,2 21,9 18,5 15,7 12 6 20 11 W 1020,6 17 17 0,0
16.08.2017 13:00:00 19,0 15,1 21,1 20,3 18,3 15,7 12 6 20 11 NW 1020,4 14 4 0,0
16.08.2017 12:00:00 18,9 15,8 20,3 19,8 18,2 15,7 10 5 22 12 NW 1019,9 8 0 0,0
16.08.2017 11:00:00 18,2 16,0 19,1 19,1 18,2 15,7 9 5 19 10 WNW 1019,7 6 0 0,0
16.08.2017 10:00:00 17,9 15,9 18,7 18,8 18,1 15,7 11 6 22 12 NW 1019,1 5 0 0,0
16.08.2017 09:00:00 18,3 16,7 18,6 18,7 18,1 15,7 13 7 25 13 NW 1018,4 6 1 0,0
16.08.2017 08:00:00 18,3 17,0 18,1 18,1 18,1 15,7 15 8 26 14 NW 1017,4 3,3 0 0,0
16.08.2017 07:00:00 18,1 17,3 17,8 17,5 18,3 15,7 16 8 24 13 WNW 1016,6 2,0 0 0,0
16.08.2017 06:00:00 16,9 16,6 15,9 16,9 18,5 15,7 11 6 16 9 W 1016,0 1,3 0 0,0
16.08.2017 05:00:00 16,9 16,8 15,2 17,7 18,7 15,7 6 3 10 5 W 1015,6 0,3 0 0,0
16.08.2017 04:00:00 17,3 17,0 17,0 18,0 18,8 15,7 10 5 13 7 W 1015,5 2,0 0 0,0
16.08.2017 03:00:00 17,3 17,1 16,9 18,3 19,0 15,7 6 4 9 5 ZW 1015,1 2,5 0 0,0
16.08.2017 02:00:00 17,4 17,2 16,9 18,5 19,2 15,7 5 3 11 6 WNW 1014,8 2,7 0 2,9
16.08.2017 01:00:00 17,7 16,8 17,0 18,9 19,4 15,8 6 3 36 20 WZW 1015,8 3,4 0 3,1
16.08.2017 00:00:00 20,3 14,5 18,9 19,4 19,7 15,8 8 4 23 12 ZZO 1014,7 12 0 0,0
15.08.2017 23:00:00 20,8 14,0 19,2 19,7 19,9 15,8 16 9 25 13 OZO 1014,7 12 0 0,0
15.08.2017 22:00:00 21,4 13,9 19,7 20,3 20,2 15,8 16 9 23 12 ZO 1015,1 11 0 0,0
15.08.2017 21:00:00 22,0 14,4 19,7 21,2 20,4 15,8 14 8 23 13 ZO 1014,9 11 0 0,0
15.08.2017 20:00:00 23,3 14,1 21,5 22,7 20,4 15,8 17 9 28 15 OZO 1015,1 14 16 0,0
15.08.2017 19:00:00 24,5 14,2 23,5 23,9 20,4 15,8 18 10 34 19 ZO 1015,9 17 9 0,0
15.08.2017 18:00:00 25,2 13,6 24,9 25,3 20,1 15,8 22 12 36 20 ZZO 1016,1 11 56 0,0
15.08.2017 17:00:00 25,8 14,0 27,7 26,4 19,7 15,8 24 13 38 20 ZO 1016,5 9 60 0,0
15.08.2017 16:00:00 25,7 13,6 28,6 26,6 19,2 15,8 26 14 37 20 ZO 1016,9 8 57 0,0
15.08.2017 15:00:00 25,6 13,7 28,4 26,3 18,6 15,8 23 12 37 20 ZO 1017,8 7 52 0,0
15.08.2017 14:00:00 24,4 13,1 26,4 25,8 17,9 15,8 27 15 43 23 ZZO 1018,5 7 59 0,0
15.08.2017 13:00:00 24,4 14,5 27,7 24,5 17,3 15,8 27 15 46 25 ZO 1018,6 7 60 0,0
15.08.2017 12:00:00 23,4 13,7 25,9 22,7 16,7 15,8 28 15 43 23 ZO 1019,1 7 60 0,0
15.08.2017 11:00:00 22,0 13,8 24,6 20,5 16,2 15,8 22 12 35 19 ZO 1019,8 12 60 0,0
15.08.2017 10:00:00 20,5 13,1 22,7 18,2 15,9 15,8 22 12 31 17 ZO 1020,0 7 60 0,0
15.08.2017 09:00:00 18,5 12,4 19,7 16,3 15,8 15,8 20 11 32 17 ZZO 1020,5 7 60 0,0
15.08.2017 08:00:00 16,1 12,1 16,7 14,5 15,9 15,8 16 9 27 15 ZO 1020,7 9 59 0,0
15.08.2017 07:00:00 14,1 11,5 13,2 13,6 16,1 15,8 15 8 21 11 OZO 1020,9 10 33 0,0
15.08.2017 06:00:00 13,0 11,2 11,5 13,5 16,3 15,8 14 7 19 10 OZO 1021,1 10 0 0,0
15.08.2017 05:00:00 13,6 11,4 12,0 13,8 16,5 15,8 14 7 19 10 OZO 1021,4 12 0 0,0
15.08.2017 04:00:00 13,7 11,5 12,0 14,1 16,7 15,8 14 7 22 12 OZO 1021,8 12 0 0,0
15.08.2017 03:00:00 13,5 11,4 11,5 14,3 17,0 15,8 14 7 19 11 OZO 1022,1 13 0 0,0
15.08.2017 02:00:00 14,4 11,9 12,4 14,7 17,3 15,8 13 7 19 10 OZO 1022,6 14 0 0,0
15.08.2017 01:00:00 14,4 12,2 12,3 15,0 17,6 15,8 14 8 20 11 OZO 1022,9 15 0 0,0
15.08.2017 00:00:00 13,7 12,1 11,6 15,4 17,9 15,8 14 8 18 10 OZO 1023,1 17 0 0,0
14.08.2017 23:00:00 12,5 11,4 9,9 16,0 18,3 15,8 10 6 16 9 O 1023,5 11 0 0,0
14.08.2017 22:00:00 13,8 11,7 12,0 17,1 18,6 15,8 14 8 23 12 O 1023,5 33 0 0,0
14.08.2017 21:00:00 15,5 12,0 13,7 18,3 18,8 15,8 17 9 24 13 O 1023,5 37 26 0,0
14.08.2017 20:00:00 17,3 11,9 16,9 19,9 18,9 15,8 18 10 33 18 O 1023,5 48 60 0,0
14.08.2017 19:00:00 18,5 12,2 19,7 21,5 18,8 15,9 21 12 29 16 ONO 1023,6 34 60 0,0
14.08.2017 18:00:00 18,9 12,5 22,9 22,6 18,6 15,9 16 9 29 16 NO 1023,8 25 60 0,0
14.08.2017 17:00:00 18,6 11,5 24,2 23,2 18,2 15,9 19 11 29 16 NO 1024,1 28 60 0,0
14.08.2017 16:00:00 18,2 10,3 24,7 23,7 17,7 15,9 19 11 29 16 NNO 1024,5 15 60 0,0
14.08.2017 15:00:00 18,6 10,6 25,2 23,7 17,1 15,9 17 9 26 14 NNO 1024,7 19 60 0,0
14.08.2017 14:00:00 18,2 10,6 25,5 22,5 16,5 15,9 17 9 23 12 NNO 1024,8 16 57 0,0
14.08.2017 13:00:00 18,3 10,7 25,8 20,8 16,1 15,9 12 7 21 11 NNO 1025,0 17 35 0,0
14.08.2017 12:00:00 17,2 11,3 19,7 18,5 15,6 15,9 11 6 20 11 N 1025,2 30 10 0,0
14.08.2017 11:00:00 17,9 10,1 21,0 18,8 15,2 15,9 6 3 12 7 ZZO 1025,2 27 44 0,0
14.08.2017 10:00:00 16,3 11,0 17,1 15,5 15,0 15,9 6 3 9 5 N 1025,0 28 25 0,0
14.08.2017 09:00:00 17,3 11,2 19,8 15,2 14,8 15,9 2 1 4 2 ONO 1024,8 24 60 0,0
14.08.2017 08:00:00 14,1 11,4 13,9 12,5 15,0 15,9 0 0 6 3 N 1024,3 20 60 0,0
14.08.2017 07:00:00 8,3 7,9 9,3 11,1 15,2 15,9 2 1 4 2 ZZO 1024,1 1,7 33 0,0
14.08.2017 06:00:00 6,9 6,7 4,8 11,1 15,5 15,9 4 2 4 2 Z 1023,7 0,3 0 0,0
14.08.2017 05:00:00 7,3 7,1 5,1 11,6 15,9 15,9 0 0 5 3 N 1023,2 0,2 0 0,0
14.08.2017 04:00:00 8,0 7,8 5,9 12,1 16,2 15,9 2 1 4 2 Z 1023,2 0,2 0 0,0
14.08.2017 03:00:00 8,2 7,9 5,6 12,5 16,5 15,9 2 1 4 2 Z 1023,0 0,1 0 0,0
14.08.2017 02:00:00 9,2 9,1 5,8 12,9 16,9 15,9 3 2 4 2 Z 1022,7 0,4 0 0,0
14.08.2017 01:00:00 10,1 9,6 7,1 13,6 17,3 15,9 0 0 6 4 N 1022,4 15 0 0,0
14.08.2017 00:00:00 10,1 9,4 6,6 14,0 17,7 15,9 3 2 6 3 ZZO 1022,0 14 0 0,0

tt = temperatuur
td = dauwpunt
tt 5cm = temperatuur 5cm
tt -5cm = temperatuur -5cm
tt -20cm = temperatuur -20cm
tt -100cm = temperatuur -100cm
ff = windsnelheid
fx = windstoten
dd = windrichting
ppp = luchtdruk
vv = zicht
sd = Zonneschijnduur
rr = neerslag

Weerstations in de omgeving